Regional Weather Roundup
Issued by NWS

Home | Current Version | Previous Version | Graphics & Text | Print | Product List | Glossary On
Versions: 1 2 3 4 5 6 7 8 9 10 11 12 13 14 15 16 17 18 19 20 21 22 23 24 25 26 27 28 29 30 31 32 33 34 35 36 37 38 39 40 41 42 43 44 45 46 47 48 49 50
000
ASUS43 KFSD 201310
RWRSD

WEATHER ROUNDUP FOR SOUTH DAKOTA
NATIONAL WEATHER SERVICE SIOUX FALLS SD
700 AM CST FRI JAN 20 2017

NOTE: "FAIR" INDICATES FEW OR NO CLOUDS BELOW 12,000 FEET WITH NO
SIGNIFICANT WEATHER AND/OR OBSTRUCTIONS TO VISIBILITY.


SDZ001>005-009-010-012>017-201400-
NORTHWEST AND NORTH CENTRAL SOUTH DAKOTA

CITY           SKY/WX    TMP DP  RH WIND       PRES   REMARKS
BUFFALO          N/A     23  19  85 W12       29.32R WCI  12
FAITH            N/A     21  18  88 NW15      29.35F WCI   8
MOBRIDGE       FOG       24  20  84 N6        29.36S VSB 1/2 WCI  17
$$

SDZ012>016-024>037-041>051-057-063-072>074-201400-
SOUTHWEST AND SOUTH CENTRAL SOUTH DAKOTA

CITY           SKY/WX    TMP DP  RH WIND       PRES   REMARKS
RAPID CTY ARPT CLOUDY    28  20  71 NW8       29.38R WCI  20
PIERRE         FOG       17  15  92 CALM      29.38S VSB 1/4
CUSTER         CLOUDY    24  16  71 N3        29.37S
ELLSWORTH AFB  CLOUDY    28  21  76 N14       29.37R WCI  17
PHILIP         CLOUDY    15  13  91 W6        29.37F WCI   6
PINE RIDGE     CLOUDY    23  19  85 SW8       29.40S WCI  14
SPEARFISH      FAIR      32  23  69 W12       29.42S WCI  23
WINNER         FAIR      27  24  89 SW7       29.38R WCI  19
$$

SDZ004>011-016>023-039-040-201400-
NORTHEAST SOUTH DAKOTA

CITY           SKY/WX    TMP DP  RH WIND       PRES   REMARKS
ABERDEEN       CLOUDY    34  31  88 SE6       29.45S FOG     WCI  29
WATERTOWN      CLOUDY    35  35 100 SE12      29.47R FOG     WCI  27
BROOKINGS      CLOUDY    36  35  96 SE10      29.49S
SISSETON         N/A     34  34 100 S10       29.50S WCI  26
$$

SDZ017-020-022-023-036>040-048>070-201400-
SOUTHEAST SOUTH DAKOTA

CITY           SKY/WX    TMP DP  RH WIND       PRES   REMARKS
SIOUX FALLS    FOG       37  37 100 SE12      29.50F VSB 3/4
HURON          CLOUDY    36  36 100 SE9       29.43S
CHAMBERLAIN    CLEAR     32  32 100 SE3       29.38F
MITCHELL       CLOUDY    38  37  97 SE10      29.44S
YANKTON        CLOUDY    36  34  93 SE9       29.48R
$$

ABBREVIATIONS USED IN REMARKS
   TC - TEMPERATURE IN CELSIUS
  WCI - WIND CHILL INDEX
   HX - HEAT INDEX
  VSB - VISIBILITY




USA.gov is the U.S. government's official web portal to all federal, state and local government web resources and services.